When you browse on this site, cookies collect data to enhance your experience and personalize the content and advertising you see.
Visit our Privacy Policy to learn more. By continuing to use the site, you agree to this use of cookies and data.
  • In Hungary
  • List of Countries
  • For 7 days
  • Water Temperature
  • Weather Map
  • News
  • Weather Widgets
  • user-avatar
    Login

    Hourly Weather Maimara

    Today, 19 November, Tuesday

    Time Temperature Precipitation Wind Pressure Humidity
    00:00 +12°C° 0 mm 1 mps 528 mmHg 73%
    01:00 +12°C° 0 mm 1 mps 528 mmHg 72%
    02:00 +11°C° 0 mm 0 mps 528 mmHg 72%
    03:00 +10°C° 0 mm 0 mps 528 mmHg 73%
    04:00 +10°C° 0 mm 0 mps 527 mmHg 73%
    05:00 +10°C° 0 mm 0 mps 527 mmHg 74%
    06:00 +12°C° 0 mm 1 mps 528 mmHg 69%
    07:00 +13°C° 0 mm 1 mps 529 mmHg 63%
    08:00 +14°C° 0 mm 1 mps 530 mmHg 57%
    09:00 +15°C° 0 mm 1 mps 530 mmHg 52%
    10:00 +16°C° 0 mm 2 mps 531 mmHg 47%
    11:00 +18°C° 0 mm 2 mps 531 mmHg 43%
    12:00 +18°C° 0.3 mm 3 mps 531 mmHg 44%
    13:00 +18°C° 0.3 mm 3 mps 530 mmHg 45%
    14:00 +18°C° 0.3 mm 3 mps 530 mmHg 46%
    15:00 +18°C° 0.6 mm 3 mps 529 mmHg 50%
    16:00 +17°C° 0.6 mm 3 mps 528 mmHg 54%
    17:00 +16°C° 0.6 mm 3 mps 528 mmHg 58%
    18:00 +16°C° 1.1 mm 2 mps 528 mmHg 62%
    19:00 +15°C° 1.1 mm 2 mps 528 mmHg 65%
    20:00 +14°C° 1.1 mm 2 mps 528 mmHg 68%
    21:00 +13°C° 2.5 mm 2 mps 528 mmHg 73%
    22:00 +12°C° 2.5 mm 2 mps 527 mmHg 78%
    23:00 +10°C° 2.5 mm 2 mps 527 mmHg 83%

    Tomorrow, 20 November, Wednesday

    Time Temperature Precipitation Wind Pressure Humidity
    00:00 +10°C° 0.1 mm 2 mps 527 mmHg 80%
    01:00 +12°C° 0.1 mm 2 mps 527 mmHg 77%
    02:00 +12°C° 0.1 mm 1 mps 527 mmHg 74%
    03:00 +12°C° 0 mm 1 mps 527 mmHg 74%
    04:00 +12°C° 0 mm 1 mps 526 mmHg 75%
    05:00 +12°C° 0 mm 1 mps 526 mmHg 75%
    06:00 +13°C° 0 mm 1 mps 527 mmHg 69%
    07:00 +15°C° 0 mm 1 mps 528 mmHg 63%
    08:00 +16°C° 0 mm 1 mps 529 mmHg 57%
    09:00 +18°C° 0.1 mm 1 mps 530 mmHg 53%
    10:00 +18°C° 0.1 mm 2 mps 530 mmHg 49%
    11:00 +19°C° 0.1 mm 2 mps 530 mmHg 45%
    12:00 +19°C° 0.4 mm 2 mps 530 mmHg 46%
    13:00 +19°C° 0.4 mm 3 mps 529 mmHg 47%
    14:00 +19°C° 0.4 mm 3 mps 529 mmHg 48%
    15:00 +19°C° 0.9 mm 3 mps 528 mmHg 50%
    16:00 +18°C° 0.9 mm 3 mps 528 mmHg 52%
    17:00 +18°C° 0.9 mm 3 mps 527 mmHg 54%
    18:00 +17°C° 0.3 mm 3 mps 527 mmHg 59%
    19:00 +16°C° 0.3 mm 2 mps 527 mmHg 65%
    20:00 +15°C° 0.3 mm 2 mps 527 mmHg 70%
    21:00 +14°C° 0.5 mm 1 mps 527 mmHg 70%
    22:00 +14°C° 0.5 mm 1 mps 527 mmHg 70%
    23:00 +14°C° 0.5 mm 1 mps 527 mmHg 71%

    Day after tomorrow, 21 November, Thursday

    Time Temperature Precipitation Wind Pressure Humidity
    00:00 +14°C° 0.2 mm 1 mps 527 mmHg 70%
    01:00 +14°C° 0.2 mm 1 mps 526 mmHg 70%
    02:00 +14°C° 0.2 mm 1 mps 526 mmHg 70%
    03:00 +13°C° 0 mm 1 mps 526 mmHg 71%
    04:00 +13°C° 0 mm 1 mps 526 mmHg 71%
    05:00 +13°C° 0 mm 1 mps 526 mmHg 72%
    06:00 +14°C° 0 mm 1 mps 527 mmHg 65%
    07:00 +14°C° 0 mm 0 mps 528 mmHg 59%
    08:00 +16°C° 0 mm 0 mps 529 mmHg 53%
    09:00 +19°C° 0.2 mm 1 mps 529 mmHg 51%
    10:00 +19°C° 0.2 mm 2 mps 529 mmHg 49%
    11:00 +20°C° 0.2 mm 3 mps 530 mmHg 47%
    12:00 +20°C° 0.6 mm 3 mps 529 mmHg 48%
    13:00 +20°C° 0.6 mm 3 mps 529 mmHg 50%
    14:00 +20°C° 0.6 mm 3 mps 528 mmHg 51%
    15:00 +19°C° 1.1 mm 3 mps 528 mmHg 53%
    16:00 +19°C° 1.1 mm 3 mps 527 mmHg 56%
    17:00 +18°C° 1.1 mm 3 mps 526 mmHg 58%
    18:00 +17°C° 1.7 mm 3 mps 526 mmHg 67%
    19:00 +16°C° 1.7 mm 3 mps 526 mmHg 75%
    20:00 +13°C° 1.7 mm 3 mps 526 mmHg 83%
    21:00 +14°C° 0.2 mm 2 mps 526 mmHg 83%
    22:00 +14°C° 0.2 mm 2 mps 526 mmHg 82%
    23:00 +13°C° 0.2 mm 1 mps 526 mmHg 81%

    22 November, Friday

    Time Temperature Precipitation Wind Pressure Humidity
    00:00 +13°C° 0.2 mm 1 mps 526 mmHg 79%
    01:00 +13°C° 0.2 mm 1 mps 526 mmHg 77%
    02:00 +12°C° 0.2 mm 0 mps 526 mmHg 75%
    03:00 +12°C° 0 mm 0 mps 526 mmHg 75%
    04:00 +13°C° 0 mm 1 mps 525 mmHg 76%
    05:00 +13°C° 0 mm 1 mps 525 mmHg 76%
    06:00 +14°C° 0.1 mm 1 mps 526 mmHg 70%
    07:00 +15°C° 0.1 mm 1 mps 527 mmHg 65%
    08:00 +16°C° 0.1 mm 1 mps 528 mmHg 59%
    09:00 +17°C° 0.9 mm 2 mps 529 mmHg 60%
    10:00 +17°C° 0.9 mm 2 mps 529 mmHg 60%
    11:00 +18°C° 0.9 mm 3 mps 529 mmHg 60%
    12:00 +17°C° 1.7 mm 3 mps 528 mmHg 63%
    13:00 +17°C° 1.7 mm 3 mps 528 mmHg 66%
    14:00 +17°C° 1.7 mm 3 mps 527 mmHg 68%
    15:00 +16°C° 1.2 mm 3 mps 527 mmHg 73%
    16:00 +14°C° 1.2 mm 4 mps 526 mmHg 77%
    17:00 +13°C° 1.2 mm 4 mps 525 mmHg 82%
    18:00 +13°C° 0.5 mm 3 mps 526 mmHg 83%
    19:00 +13°C° 0.5 mm 3 mps 526 mmHg 85%
    20:00 +13°C° 0.5 mm 2 mps 527 mmHg 87%
    21:00 +13°C° 0 mm 2 mps 527 mmHg 87%
    22:00 +12°C° 0 mm 2 mps 527 mmHg 88%
    23:00 +12°C° 0 mm 1 mps 527 mmHg 88%

    23 November, Saturday

    Time Temperature Precipitation Wind Pressure Humidity
    00:00 +12°C° 0.1 mm 1 mps 527 mmHg 87%
    01:00 +12°C° 0.1 mm 1 mps 527 mmHg 85%
    02:00 +12°C° 0.1 mm 1 mps 527 mmHg 84%
    03:00 +12°C° 0 mm 1 mps 526 mmHg 84%
    04:00 +11°C° 0 mm 1 mps 526 mmHg 84%
    05:00 +11°C° 0 mm 1 mps 526 mmHg 83%
    06:00 +12°C° 0 mm 1 mps 527 mmHg 80%
    07:00 +13°C° 0 mm 1 mps 528 mmHg 76%
    08:00 +14°C° 0 mm 1 mps 528 mmHg 72%
    09:00 +15°C° 0.1 mm 1 mps 528 mmHg 71%
    10:00 +16°C° 0.1 mm 2 mps 529 mmHg 69%
    11:00 +17°C° 0.1 mm 2 mps 529 mmHg 68%
    12:00 +17°C° 0.4 mm 2 mps 528 mmHg 70%
    13:00 +17°C° 0.4 mm 3 mps 527 mmHg 72%
    14:00 +17°C° 0.4 mm 3 mps 527 mmHg 74%
    15:00 +17°C° 0.6 mm 3 mps 526 mmHg 75%
    16:00 +16°C° 0.6 mm 3 mps 526 mmHg 76%
    17:00 +16°C° 0.6 mm 3 mps 525 mmHg 77%
    18:00 +15°C° 0.4 mm 2 mps 525 mmHg 80%
    19:00 +15°C° 0.4 mm 2 mps 526 mmHg 83%
    20:00 +14°C° 0.4 mm 1 mps 526 mmHg 85%
    21:00 +14°C° 0.4 mm 1 mps 526 mmHg 82%
    22:00 +14°C° 0.4 mm 2 mps 526 mmHg 79%
    23:00 +14°C° 0.4 mm 2 mps 527 mmHg 76%

    24 November, Sunday

    Time Temperature Precipitation Wind Pressure Humidity
    00:00 +14°C° 0 mm 2 mps 526 mmHg 76%
    01:00 +13°C° 0 mm 1 mps 525 mmHg 76%
    02:00 +13°C° 0 mm 1 mps 525 mmHg 76%
    03:00 +13°C° 0 mm 1 mps 524 mmHg 76%
    04:00 +13°C° 0 mm 1 mps 524 mmHg 76%
    05:00 +13°C° 0 mm 2 mps 524 mmHg 76%
    06:00 +14°C° 0 mm 2 mps 525 mmHg 71%
    07:00 +15°C° 0 mm 2 mps 525 mmHg 65%
    08:00 +17°C° 0 mm 2 mps 526 mmHg 60%
    09:00 +18°C° 0 mm 2 mps 527 mmHg 56%
    10:00 +19°C° 0 mm 2 mps 527 mmHg 51%
    11:00 +20°C° 0 mm 2 mps 527 mmHg 47%
    12:00 +21°C° 0.5 mm 2 mps 526 mmHg 48%
    13:00 +21°C° 0.5 mm 2 mps 526 mmHg 49%
    14:00 +21°C° 0.5 mm 2 mps 525 mmHg 50%
    15:00 +20°C° 0.5 mm 3 mps 524 mmHg 56%
    16:00 +19°C° 0.5 mm 3 mps 523 mmHg 61%
    17:00 +19°C° 0.5 mm 3 mps 522 mmHg 67%
    18:00 +17°C° 1.4 mm 3 mps 522 mmHg 71%
    19:00 +15°C° 1.4 mm 4 mps 522 mmHg 76%
    20:00 +14°C° 1.4 mm 4 mps 522 mmHg 81%
    21:00 +14°C° 0.3 mm 4 mps 523 mmHg 75%
    22:00 +14°C° 0.3 mm 4 mps 523 mmHg 70%
    23:00 +14°C° 0.3 mm 3 mps 523 mmHg 64%
    Show more